Regional Weather Roundup
Issued by NWS

Home | Current Version | Previous Version | Text Only | Print | Product List | Glossary Off
Versions: 1 2 3 4 5 6 7 8 9 10 11 12 13 14 15 16 17 18 19 20 21 22 23 24 25 26 27 28 29 30 31 32 33 34 35 36 37 38 39 40 41 42 43 44 45 46 47 48 49 50

000
ASUS43 KBIS 170410
RWRND

NORTH DAKOTA REGIONAL WEATHER ROUNDUP
NATIONAL WEATHER SERVICE BISMARCK ND
1100 PM CDT TUE SEP 16 2014

NOTE: "FAIR" INDICATES FEW OR NO CLOUDS BELOW 12,000 FEET WITH NO
SIGNIFICANT WEATHER AND/OR OBSTRUCTIONS TO VISIBILITY.


NDZ001>003-009>011-017-170500-
NORTHWEST NORTH DAKOTA

CITY           SKY/WX    TMP DP  RH WIND       PRES   REMARKS
WILLISTON      CLEAR     48  40  73 N5        29.92R
MINOT          CLEAR     54  46  74 CALM      29.91R
MINOT AFB      CLEAR     46  44  92 SW7       29.91R
$$

NDZ018>021-031>035-040>046-170500-
SOUTHWEST NORTH DAKOTA

CITY           SKY/WX    TMP DP  RH WIND       PRES   REMARKS
BISMARCK       CLEAR     52  46  80 NE5       29.92S
DICKINSON      PTCLDY    48  41  76 SE5       29.93S
GARRISON         N/A     47  41  80 CALM      29.92R
HETTINGER ARPT CLOUDY    55  46  71 NE3       29.95R
$$

NDZ004>008-012>016-024-026-027-054-170500-
NORTHEAST NORTH DAKOTA

CITY           SKY/WX    TMP DP  RH WIND       PRES   REMARKS
GRAND FORKS    CLEAR     51  44  77 S7        29.91S
GRND FRKS AFB  CLEAR     53  44  72 S6        29.92S
DEVILS LAKE    CLEAR     57  41  54 S3        29.90F
$$

NDZ022-023-025-028>030-036>039-047>053-170500-
SOUTHEAST NORTH DAKOTA

CITY           SKY/WX    TMP DP  RH WIND       PRES   REMARKS
FARGO          CLEAR     55  46  71 E7        29.93S
JAMESTOWN      CLEAR     48  44  86 N3        29.91F
$$




USA.gov is the U.S. government's official web portal to all federal, state and local government web resources and services.